GFSGBSN_prec_cloud_021.txt.gz
Cloud_Cover
100 6 80 27 16 11 2 0 0 0 0 0 0 0 0 0 0 1 78 65 81 59 82 69 100 49 96 5 4 0 0 0 0 0 0 0 0 0 0 1 0 0 0 0 0 0 0
100 72 71 9 9 17 16 0 0 0 0 0 0 0 0 17 0 0 4 59 5 5 48 86 100 93 54 8 7 5 1 0 0 0 0 0 0 0 0 0 0 0 0 0 0 0 0
100 100 61 14 13 12 8 6 0 0 0 0 0 0 0 89 17 0 69 55 100 8 98 73 92 73 55 98 100 76 100 50 2 0 0 0 0 0 0 0 0 0 0 0 0 0 0
100 100 63 15 13 14 8 3 0 0 0 0 0 0 0 0 75 11 13 100 5 99 75 61 100 100 100 87 96 5 100 100 7 0 0 0 0 0 0 0 0 0 0 5 73 0 0
100 100 100 100 10 14 13 16 1 0 0 0 1 0 1 4 2 4 5 42 94 100 100 100 100 100 100 100 100 14 100 100 96 0 99 79 5 0 0 0 0 0 0 40 20 0 0
100 100 100 96 33 25 6 9 100 39 1 5 5 7 5 5 5 2 1 10 19 100 93 100 100 100 100 100 64 8 4 5 14 19 40 28 4 0 0 0 0 2 1 0 0 0 0
100 61 100 50 19 94 96 5 96 35 5 29 48 14 62 38 7 5 13 5 0 34 42 85 100 100 56 64 89 5 5 5 4 5 5 4 1 0 0 0 0 0 0 5 2 0 3
100 95 79 16 97 100 99 100 32 6 5 100 99 58 79 88 100 8 15 5 5 2 2 0 4 30 2 5 93 71 0 30 94 5 5 4 4 0 0 0 0 0 5 5 5 5 5
100 99 100 9 88 100 96 100 76 5 4 96 100 5 100 98 100 91 6 76 30 5 0 0 0 0 0 0 2 1 78 98 37 0 0 0 0 0 0 0 0 0 0 1 2 8 10
100 100 100 90 25 36 51 91 82 5 5 11 10 30 100 100 100 100 100 100 30 38 3 0 0 0 0 0 20 31 100 77 2 3 0 0 0 0 0 0 4 0 5 5 0 43 77
100 100 100 100 98 5 5 44 75 86 5 5 5 7 99 100 100 100 100 100 100 42 5 3 1 5 0 0 0 0 2 6 5 5 5 0 0 0 0 0 0 0 5 4 2 3 6
100 100 100 100 96 53 83 73 100 100 8 5 5 5 22 48 29 87 99 100 100 100 36 21 5 5 1 0 1 0 2 5 5 5 2 5 1 0 2 91 100 100 100 100 94 100 50
92 100 100 100 100 92 13 91 78 100 17 24 17 99 100 71 93 100 100 66 29 53 18 30 5 16 4 0 0 0 0 0 2 5 5 0 0 0 3 4 36 45 23 27 5 62 73
20 37 82 82 100 100 100 100 70 100 86 92 22 100 100 100 98 98 96 62 6 99 13 88 100 96 7 5 1 4 0 0 0 0 0 0 0 0 0 0 0 5 5 4 5 100 100
5 7 81 48 84 100 100 100 100 100 100 100 96 89 100 100 100 100 100 100 100 98 32 100 100 100 100 15 5 5 2 4 0 0 0 0 30 2 9 5 14 0 0 4 2 0 0
30 98 95 88 96 99 100 100 100 100 100 100 100 100 100 100 100 100 100 96 98 100 96 65 100 100 99 100 99 9 4 3 0 0 5 4 5 0 2 1 0 0 0 0 0 0 0
51 100 21 100 100 99 73 100 100 100 100 100 100 100 100 100 100 100 100 100 67 5 5 49 76 59 100 100 100 100 27 10 43 5 5 5 2 31 0 0 0 0 0 0 0 62 82
92 8 5 100 95 4 5 29 100 95 100 100 100 100 100 100 100 100 100 100 88 5 13 55 8 100 63 41 100 100 100 99 100 100 100 5 0 0 0 1 0 0 2 3 0 3 1
1 70 18 100 5 3 2 5 60 100 100 100 100 100 100 100 100 56 29 92 62 12 56 88 88 100 100 86 89 100 100 100 100 100 5 3 0 0 0 1 4 0 0 0 4 0 6
0 70 0 5 5 3 4 4 5 83 92 100 100 100 100 100 97 100 65 100 92 90 26 0 0 5 97 100 100 100 78 84 100 100 88 53 2 9 14 95 68 56 0 0 1 3 2
0 0 0 0 1 5 4 5 5 5 61 74 98 99 100 100 100 97 53 80 59 100 68 2 29 87 45 60 88 100 93 98 100 100 100 6 10 6 1 2 37 33 7 43 5 3 3
0 0 0 0 0 0 4 5 5 4 5 64 75 90 100 98 100 100 100 100 100 71 98 98 5 59 99 100 90 97 64 100 94 99 74 61 5 3 25 25 79 5 0 0 24 6 5
0 7 6 0 0 0 0 5 5 5 5 8 50 80 59 97 100 100 100 99 100 14 100 100 98 20 79 57 27 48 100 100 42 98 9 99 6 100 100 100 99 48 5 2 5 84 25
0 0 0 0 0 0 38 3 5 5 5 4 6 21 45 43 93 100 10 38 94 99 99 12 100 99 11 88 100 100 100 93 80 87 91 79 6 89 100 96 88 88 100 69 58 6 18
0 0 0 0 1 0 0 0 1 4 5 5 5 5 21 13 11 5 19 71 64 52 100 100 100 21 100 98 99 96 82 9 73 70 71 35 40 5 100 95 100 98 52 1 4 2 5
0 0 0 3 1 81 1 0 0 0 1 4 5 1 3 5 8 6 6 5 5 96 33 84 77 100 100 100 6 4 5 59 7 75 100 100 100 100 100 100 100 100 100 86 0 0 20
5 0 0 0 30 95 1 0 0 0 0 0 0 4 1 3 5 5 5 5 4 5 9 70 12 100 100 100 100 10 5 9 37 64 100 100 100 100 100 100 100 100 84 58 3 1 5
6 2 0 0 5 19 5 0 0 12 0 0 0 0 0 0 2 2 5 5 1 2 5 4 16 74 81 99 100 100 84 65 17 97 100 78 100 100 100 100 100 94 100 31 5 0 0
15 4 0 0 5 88 4 4 0 0 0 0 0 0 0 0 0 0 0 0 4 0 0 3 16 5 5 16 77 100 100 84 45 100 100 100 66 71 100 100 100 100 100 100 53 5 1

GFSGBSN_prec_cloud_024.txt.gz
Cloud_Cover
92 76 26 10 18 2 0 0 0 0 0 0 0 0 0 0 0 10 1 0 6 81 83 87 5 10 2 0 0 0 0 0 0 0 0 0 0 0 0 4 0 3 4 0 0 0 0
100 17 20 6 11 11 8 0 0 0 0 0 0 0 0 0 0 22 67 3 4 5 43 100 100 72 9 0 0 2 2 4 0 0 0 0 0 0 0 0 0 0 0 0 0 0 0
100 100 93 8 7 13 5 0 0 0 0 0 0 0 0 0 0 0 9 77 2 55 96 33 100 99 100 95 92 32 96 5 0 0 0 0 0 0 0 0 0 0 0 0 0 0 0
92 100 84 16 14 4 13 8 0 0 0 0 0 0 0 0 0 2 3 0 29 100 67 100 64 9 98 100 32 76 100 7 5 2 1 0 0 0 0 0 0 0 0 0 46 1 0
93 100 100 24 16 10 10 7 0 0 0 0 0 0 0 0 0 17 3 0 0 10 100 5 10 11 98 100 99 39 83 100 100 100 95 3 0 1 3 0 0 0 0 8 100 2 0
57 100 92 54 32 75 16 6 4 0 0 0 0 0 0 0 0 33 88 4 4 23 88 87 87 18 31 98 99 64 100 69 77 100 100 62 68 100 6 3 1 4 20 4 100 54 0
100 96 20 95 100 6 6 4 1 0 0 2 0 0 0 0 0 0 57 90 5 4 100 46 100 100 30 100 100 100 100 100 14 100 100 76 13 100 33 4 0 0 0 0 0 0 0
100 48 92 96 34 8 6 3 5 5 0 65 100 49 0 0 0 2 6 5 3 51 20 32 100 100 100 100 100 100 100 55 2 5 5 16 6 5 12 0 0 0 0 0 0 1 0
100 88 66 53 100 6 5 7 21 38 67 94 76 7 5 31 5 20 5 17 3 5 0 4 100 100 100 100 100 82 45 54 3 2 75 97 3 20 0 0 0 0 0 0 0 5 3
100 100 75 13 45 23 5 36 87 92 100 100 98 72 79 15 8 55 8 9 8 5 1 0 19 63 70 100 100 82 5 24 98 17 100 100 6 0 0 0 0 0 0 0 3 5 3
100 100 100 100 69 8 14 5 100 97 57 84 5 5 9 100 80 4 93 75 34 33 5 4 1 5 0 2 24 16 0 5 23 38 97 29 0 0 0 0 0 0 0 0 0 0 0
100 100 100 100 100 100 85 5 6 16 5 44 8 5 22 78 61 46 72 100 100 100 39 18 84 7 5 1 0 0 0 3 8 90 98 4 3 0 0 0 0 0 0 35 88 80 59
96 100 100 100 100 100 99 97 7 5 17 54 73 8 19 5 54 76 100 100 100 100 100 5 100 19 5 5 0 0 0 0 0 0 1 2 2 0 0 4 0 0 4 96 13 20 68
100 100 100 100 100 100 100 56 5 5 5 98 100 66 5 5 7 93 100 100 99 97 100 96 97 94 66 55 5 5 5 4 2 0 0 0 1 2 0 0 0 0 0 0 0 0 98
94 100 48 81 100 100 100 96 48 24 56 5 100 94 5 5 5 5 5 5 53 100 96 53 94 100 100 73 27 5 5 5 0 0 0 42 54 6 0 0 0 0 0 4 0 0 0
94 95 18 85 100 100 100 100 90 98 100 64 100 94 51 5 9 77 75 100 100 38 4 66 100 100 100 100 98 71 13 5 5 5 4 3 44 78 0 0 1 5 5 1 2 0 0
5 0 16 100 5 6 90 99 98 100 100 98 100 100 92 60 94 100 100 100 100 79 89 100 100 74 96 100 72 100 100 51 5 5 3 0 0 34 0 0 0 0 0 0 0 1 32
97 5 1 1 0 3 5 5 13 100 100 100 100 100 100 100 100 100 100 100 100 100 100 100 100 100 100 42 91 100 100 100 100 86 27 0 3 6 4 4 0 0 0 3 2 0 0
0 59 50 19 5 0 5 5 5 11 100 100 95 100 100 100 100 100 100 100 100 100 100 44 5 33 11 38 45 100 100 29 65 100 80 99 88 100 80 0 2 5 0 0 0 0 0
0 0 17 59 5 4 4 5 5 5 44 100 100 100 100 100 98 100 97 100 100 100 100 100 67 6 8 6 34 97 100 92 100 100 76 100 80 5 4 55 87 33 63 0 0 0 0
0 0 42 0 12 5 3 4 5 5 5 69 100 79 100 100 100 100 100 100 100 69 18 14 73 21 85 61 97 100 100 97 100 100 100 100 56 2 100 1 8 81 80 95 60 3 0
0 0 0 0 0 0 0 5 5 5 5 5 59 83 100 100 100 100 99 100 100 100 100 100 64 100 60 51 68 74 100 100 53 86 100 100 100 89 100 68 4 5 4 6 30 2 5
0 0 0 0 0 2 16 1 0 5 5 5 8 48 100 96 100 100 100 100 100 100 5 5 5 99 100 25 3 2 38 75 99 99 100 100 100 100 100 71 1 4 100 100 39 0 0
0 0 0 0 0 0 64 0 0 2 4 5 5 10 96 94 100 100 100 100 100 100 15 5 14 32 13 100 76 100 66 57 99 16 56 96 100 100 100 6 20 100 12 100 68 80 0
0 0 0 0 0 0 2 0 0 0 0 2 5 5 4 24 94 100 88 87 84 99 95 100 74 3 67 100 100 15 30 2 58 100 100 100 100 71 5 11 100 98 68 98 98 50 2
0 0 0 0 0 0 0 0 4 0 0 0 1 5 5 2 7 7 94 100 100 100 100 100 84 32 100 100 100 100 22 5 84 100 100 94 36 4 5 5 33 95 2 98 100 100 0
0 3 0 0 0 0 0 0 0 0 0 0 0 4 5 5 2 11 39 46 100 62 91 23 15 83 100 54 100 100 100 56 6 52 89 13 5 5 5 5 5 5 16 100 100 100 4
0 8 2 0 0 0 0 0 0 0 0 0 0 0 2 5 6 5 3 5 8 52 97 59 100 82 100 100 84 100 100 100 16 5 99 39 5 6 5 5 91 21 7 100 100 100 36
0 1 1 0 0 0 0 36 4 0 0 0 1 0 0 2 12 16 3 0 5 5 15 6 43 100 100 100 92 100 84 100 100 100 11 72 98 100 100 78 50 12 28 84 24 64 26

GFSGBSN_prec_cloud_030.txt.gz
Cloud_Cover
54 81 29 10 12 13 14 14 2 0 0 0 0 0 0 3 0 0 0 0 0 2 90 0 0 0 1 0 0 0 0 0 0 0 0 0 0 0 0 0 0 5 1 0 0 92 25
98 18 58 19 13 15 14 10 1 0 0 0 0 0 0 0 0 0 0 0 0 0 38 11 1 0 0 0 0 0 0 0 0 0 0 0 0 0 0 0 0 1 0 0 0 3 1
100 90 100 81 15 10 3 8 4 0 0 0 0 0 0 0 0 0 0 0 0 0 0 2 5 85 61 0 0 0 0 0 0 0 0 0 0 0 0 0 0 0 0 0 0 0 0
100 100 100 68 50 13 13 2 0 0 0 0 0 0 0 0 0 0 0 0 0 0 0 0 0 96 100 5 4 0 0 0 0 0 0 0 0 0 0 0 0 0 0 0 0 0 0
100 100 100 86 100 57 8 2 1 0 0 0 0 0 0 0 0 0 0 0 2 0 0 0 0 0 52 42 95 5 0 0 0 0 5 4 4 3 0 0 0 0 0 0 0 0 4
100 100 100 100 100 100 37 6 5 3 0 0 0 0 0 0 0 0 0 0 0 5 1 0 0 2 6 100 100 39 5 5 4 5 5 5 43 8 4 0 2 0 0 0 0 0 13
100 100 100 100 100 93 85 63 34 5 5 0 0 0 0 0 0 0 5 0 0 0 5 0 0 0 5 100 100 100 99 100 97 99 100 71 96 100 85 100 100 6 5 2 0 0 0
100 100 100 100 100 100 100 100 45 12 5 5 0 0 0 0 0 0 16 0 0 0 0 1 5 0 0 62 100 100 100 100 100 100 100 100 92 66 97 100 75 47 29 0 0 0 0
100 100 100 100 100 100 100 100 97 50 54 18 5 0 0 0 0 0 0 0 0 0 0 0 14 1 92 74 100 100 100 100 100 71 100 98 98 100 100 100 93 64 7 5 0 0 0
100 100 100 100 100 100 100 100 99 65 5 64 22 5 2 21 0 0 0 0 0 0 0 0 0 23 29 100 100 70 21 29 3 97 100 100 100 100 100 100 88 7 1 0 0 0 0
100 100 100 100 100 100 100 100 100 100 56 36 6 5 5 1 0 0 0 5 6 4 0 40 0 2 3 39 9 97 39 16 49 94 100 100 100 100 100 36 14 3 11 2 0 0 0
100 97 100 100 100 100 85 13 76 58 34 15 31 5 5 4 0 0 0 4 6 7 0 0 0 76 5 45 69 80 100 100 100 100 100 100 100 100 100 23 5 3 72 0 0 0 0
100 98 98 100 82 10 31 6 6 21 25 71 6 5 9 5 1 5 14 5 15 43 40 4 4 99 12 89 96 100 100 100 100 100 100 93 97 100 100 55 5 0 0 0 0 0 0
100 100 100 100 100 87 26 6 5 10 92 9 5 5 5 2 5 5 1 0 2 100 100 6 5 4 5 5 5 7 98 100 100 100 100 98 100 100 12 5 5 5 1 0 0 0 0
100 89 100 100 100 100 48 5 5 73 83 5 5 5 5 5 5 4 4 0 7 100 100 2 0 5 9 71 5 5 9 100 100 100 100 100 100 9 20 7 0 5 0 0 0 0 0
47 100 95 52 87 100 100 81 67 70 9 5 35 65 35 5 5 5 3 5 5 23 100 21 5 61 61 8 5 6 36 100 99 100 93 84 96 89 48 0 0 0 0 0 0 0 0
4 3 72 51 72 77 93 100 93 80 100 98 72 69 8 5 5 5 5 100 73 3 21 6 5 100 100 5 37 4 66 34 5 5 5 3 0 0 0 3 0 0 0 0 0 0 0
5 4 20 0 0 3 99 100 100 100 100 100 95 96 14 5 5 5 98 100 100 3 3 5 9 100 100 100 100 100 100 95 5 5 5 0 0 4 4 4 46 0 4 0 0 0 0
0 0 0 0 0 0 55 90 92 100 100 100 100 100 13 16 74 6 5 44 100 1 4 5 5 26 100 100 94 100 98 92 100 74 69 40 5 12 91 78 4 1 1 0 0 0 0
0 0 0 0 0 16 12 1 94 100 100 100 100 100 8 5 5 35 15 5 100 14 5 5 11 89 100 100 100 100 8 5 93 79 87 93 5 85 75 6 4 1 26 43 7 0 0
0 0 0 0 0 4 7 0 100 91 100 77 100 100 98 93 72 94 70 6 84 0 5 5 6 73 90 99 86 32 4 39 90 6 20 63 42 100 100 15 5 6 7 10 0 3 2
0 0 0 0 0 35 0 0 0 100 80 100 65 100 100 100 100 100 100 100 100 6 100 93 96 13 5 5 21 7 100 100 5 62 10 92 100 100 100 100 30 60 24 90 0 2 0
0 0 0 0 0 4 4 0 0 3 100 100 90 84 100 100 95 81 91 18 95 72 100 100 100 100 100 100 100 93 14 26 90 97 100 79 4 6 100 89 100 8 100 51 0 0 0
5 0 0 0 0 0 20 0 0 0 53 100 100 82 100 100 100 84 33 100 94 7 100 83 88 100 98 100 100 100 100 100 100 24 5 6 99 100 100 100 41 89 99 64 5 0 0
5 4 0 0 0 0 82 0 0 0 0 100 100 98 96 100 98 99 76 100 100 25 95 30 5 12 96 99 100 100 100 100 100 62 90 92 100 78 64 100 59 97 82 0 0 5 1
5 5 0 4 0 0 12 2 0 0 0 5 100 100 100 5 100 57 21 90 21 100 80 7 100 97 100 100 100 99 100 99 94 86 14 100 99 57 25 4 15 100 6 30 2 52 100
5 5 0 0 0 0 0 0 0 0 0 0 12 98 100 65 100 100 53 59 93 100 97 100 100 100 100 100 100 100 67 6 32 100 83 2 6 0 2 18 57 88 15 14 72 100 100
5 5 1 0 0 0 0 0 0 0 0 2 1 7 43 38 78 100 77 5 100 100 100 100 99 98 100 100 100 100 100 90 26 7 3 4 5 5 5 4 2 0 5 0 99 100 100
60 9 5 0 0 0 0 0 0 0 0 0 0 0 5 22 38 27 33 5 21 100 100 5 3 89 100 100 100 100 100 69 4 6 1 0 31 6 3 2 48 12 3 9 100 100 82

GFSGBSN_prec_cloud_033.txt.gz
Cloud_Cover
100 100 97 11 54 14 10 17 11 5 4 0 0 0 0 0 5 1 0 0 0 0 0 0 0 0 0 0 0 0 0 0 0 0 0 0 0 0 2 0 0 0 0 0 0 0 0
100 100 90 65 1 21 12 13 5 7 0 0 0 0 0 0 4 1 0 0 0 0 0 19 4 1 0 0 0 0 0 0 0 0 0 0 0 0 0 0 0 0 0 0 0 0 0
100 100 77 94 77 3 6 7 1 0 0 0 0 0 0 0 0 0 0 0 0 0 0 6 96 0 0 0 0 0 0 0 0 0 0 0 0 0 0 0 0 0 0 0 0 0 0
100 100 100 100 70 22 9 10 4 0 0 0 0 0 0 0 0 0 0 0 0 0 0 1 100 54 19 0 0 0 0 0 0 0 0 0 0 0 0 0 0 0 0 0 0 0 0
100 100 57 70 99 55 16 4 6 0 0 0 0 0 0 0 0 0 0 0 0 0 0 0 5 97 89 8 37 1 0 0 0 0 0 0 0 0 0 0 0 0 0 0 0 0 0
100 100 100 100 100 56 86 15 15 1 0 0 0 0 0 0 0 0 0 0 0 0 0 0 0 0 4 0 98 81 76 22 3 1 0 0 0 0 0 0 10 0 0 0 0 0 0
64 100 100 100 42 100 93 100 35 12 1 0 0 0 0 0 0 0 8 0 0 0 0 0 0 0 0 2 10 100 100 100 100 29 3 0 5 2 0 3 100 54 85 29 5 0 0
65 93 100 100 100 100 100 96 100 100 90 4 2 0 0 0 0 0 13 0 0 0 0 0 0 0 2 33 39 4 96 100 100 60 75 100 25 0 50 91 100 100 56 3 20 0 0
100 100 100 100 100 100 100 97 69 100 96 88 16 3 2 0 0 0 0 0 0 0 0 0 2 4 10 63 97 100 100 100 100 100 100 100 100 72 100 100 100 96 5 21 43 0 0
100 100 100 100 100 100 100 100 100 100 100 81 46 14 20 20 3 0 0 0 0 0 0 0 0 5 3 27 72 22 34 100 100 100 83 100 100 7 100 100 81 86 89 71 5 0 0
100 100 99 100 100 100 100 100 100 100 100 100 100 46 5 7 5 5 3 0 0 0 0 0 0 0 0 87 2 20 2 56 100 100 100 80 100 25 100 100 100 100 100 98 2 0 0
100 100 100 100 100 100 100 100 100 100 100 100 100 99 10 7 5 5 5 3 0 0 0 0 0 0 0 3 0 26 68 100 100 100 21 39 2 96 100 100 100 53 100 75 5 5 0
72 100 100 97 100 100 100 100 100 100 100 100 100 100 58 51 58 8 5 5 5 4 2 0 0 0 0 2 0 0 5 100 100 32 98 6 100 100 100 93 98 18 58 78 5 0 0
27 100 100 100 100 100 100 52 100 100 100 100 100 100 100 99 42 6 5 5 5 8 1 5 5 2 0 0 0 5 4 16 6 43 100 63 23 100 41 3 58 87 84 100 1 0 0
100 100 100 93 100 100 90 99 78 86 45 50 68 5 8 88 9 5 5 7 56 32 99 36 6 92 5 4 51 5 38 10 33 100 100 100 100 76 100 100 100 91 83 79 3 0 0
100 100 100 73 27 100 100 100 98 100 16 5 6 5 5 12 5 5 37 13 60 100 83 5 24 100 33 5 0 0 51 96 23 100 100 100 100 72 45 89 12 68 5 4 0 0 0
100 84 38 41 59 40 100 100 100 100 99 89 5 5 5 98 15 12 10 90 100 53 9 0 3 13 95 5 5 0 5 100 11 81 84 100 100 96 100 100 100 22 12 6 0 0 0
4 5 5 4 4 30 76 26 100 100 100 100 72 5 5 96 36 10 88 100 99 5 5 0 0 0 50 10 5 0 70 100 52 3 48 38 7 46 100 28 49 5 2 0 0 0 0
5 5 0 0 0 54 26 4 5 34 21 100 93 68 5 5 5 69 18 18 98 5 5 5 10 0 8 100 17 9 27 96 97 5 38 52 88 82 100 85 6 5 2 0 0 0 0
24 5 5 2 0 67 2 0 0 1 3 5 95 34 6 12 5 47 96 48 100 10 5 6 89 1 40 100 100 26 86 100 100 44 56 5 18 18 26 96 100 100 12 4 0 0 0
8 5 5 5 0 67 0 0 0 0 0 0 26 100 100 100 68 100 100 62 100 14 4 7 99 14 24 100 100 100 99 100 100 100 44 6 38 98 100 98 100 100 100 25 0 0 0
9 5 5 4 0 6 8 0 0 0 0 0 44 100 100 16 100 100 100 94 100 29 0 66 100 59 28 100 100 100 65 99 100 100 100 100 100 100 100 81 100 100 100 40 0 5 0
10 5 5 40 0 0 92 0 0 0 0 0 42 100 100 68 50 100 100 71 66 5 5 97 100 92 5 100 66 100 43 5 77 90 100 100 100 100 100 99 100 100 56 5 0 0 0
99 7 10 98 2 0 3 0 0 0 16 62 1 100 100 100 100 99 100 100 92 89 19 90 100 7 5 23 30 28 5 12 66 96 100 100 100 99 100 100 100 100 54 2 0 0 0
86 36 34 10 5 0 0 0 0 0 0 30 0 64 100 100 100 100 100 100 100 60 37 100 43 3 5 6 49 82 45 99 100 100 100 100 100 98 100 97 37 9 92 30 0 0 38
62 39 80 13 5 0 0 0 0 0 0 20 0 0 100 100 100 100 100 100 84 98 42 100 100 54 80 96 100 100 100 100 100 100 100 100 100 81 100 81 5 86 78 100 2 0 67
100 39 76 8 5 1 0 0 0 0 0 7 2 0 36 100 100 100 100 100 65 23 56 100 100 100 100 100 100 100 100 100 100 87 100 100 90 34 8 0 4 38 100 98 6 31 100
100 100 28 5 5 5 0 0 0 0 0 6 10 0 0 73 100 100 100 100 69 7 78 100 100 100 100 100 100 100 100 100 90 73 100 56 88 5 5 0 4 20 72 6 7 5 100
100 100 25 6 6 5 5 0 0 0 0 0 0 0 0 0 93 100 100 100 96 32 22 94 100 100 100 100 50 73 5 6 13 45 7 73 0 0 2 5 0 14 90 68 5 7 100